Time,TemperatureF,DewpointF,PressureIn,WindDirection,WindDirectionDegrees,WindSpeedMPH,WindSpeedGustMPH,Humidity,HourlyPrecipIn,Conditions,Clouds,dailyrainin,SoftwareType,DateUTC
2013-04-03 00:00:00,42.0,23.0,-100.00,North,-999,-999.0,-999.0,46,-99.99,,,0.00,,2013-04-03 07:00:00,
2013-04-03 00:53:00,42.0,23.0,-100.00,North,-999,-999.0,-999.0,46,-99.99,,,0.00,,2013-04-03 07:53:00,
2013-04-03 01:00:00,40.0,21.0,-100.00,SSE,162,3.0,5.0,47,-99.99,,,0.00,,2013-04-03 08:00:00,
2013-04-03 02:00:00,41.0,25.0,-100.00,South,181,3.0,5.0,51,-99.99,,,0.00,,2013-04-03 09:00:00,
2013-04-03 03:00:00,41.0,24.0,-100.00,South,189,3.0,4.0,49,-99.99,,,0.00,,2013-04-03 10:00:00,
2013-04-03 04:00:00,42.0,23.0,-100.00,South,179,3.0,5.0,48,-99.99,,,0.00,,2013-04-03 11:00:00,
2013-04-03 05:00:00,41.0,23.0,-100.00,South,180,3.0,5.0,48,-99.99,,,0.00,,2013-04-03 12:00:00,
2013-04-03 06:00:00,41.0,21.0,-100.00,SSW,206,2.0,4.0,44,-99.99,,,-99.99,,2013-04-03 13:00:00,
2013-04-03 07:00:00,42.0,21.0,-100.00,East,94,0.0,1.0,43,-99.99,,,0.00,,2013-04-03 14:00:00,
2013-04-03 08:00:00,44.0,21.0,-100.00,NW,320,0.0,2.0,40,-99.99,,,0.00,,2013-04-03 15:00:00,
2013-04-03 09:00:00,45.0,22.0,-100.00,NNW,348,2.0,3.0,40,-99.99,,,0.00,,2013-04-03 16:00:00,
2013-04-03 10:00:00,45.0,27.0,-100.00,NE,47,2.0,4.0,48,-99.99,,,0.00,,2013-04-03 17:00:00,
2013-04-03 11:00:00,45.0,26.0,-100.00,NW,326,3.0,4.0,47,-99.99,,,0.00,,2013-04-03 18:00:00,
2013-04-03 12:00:00,50.0,32.0,-100.00,North,2,2.0,4.0,49,-99.99,,,0.00,,2013-04-03 19:00:00,
2013-04-03 13:00:00,49.0,27.0,-100.00,SSE,163,3.0,7.0,42,-99.99,,,0.00,,2013-04-03 20:00:00,
2013-04-03 14:00:00,49.0,28.0,-100.00,South,175,5.0,8.0,43,-99.99,,,0.00,,2013-04-03 21:00:00,
2013-04-03 15:00:00,50.0,26.0,-100.00,SSE,157,5.0,10.0,39,-99.99,,,0.00,,2013-04-03 22:00:00,
2013-04-03 16:00:00,49.0,29.0,-100.00,ESE,113,4.0,6.0,46,-99.99,,,0.00,,2013-04-03 23:00:00,
2013-04-03 17:00:00,48.0,28.0,-100.00,SSE,157,5.0,7.0,45,-99.99,,,0.00,,2013-04-04 00:00:00,
2013-04-03 18:00:00,48.0,27.0,-100.00,South,173,4.0,7.0,44,-99.99,,,0.00,,2013-04-04 01:00:00,
2013-04-03 19:00:00,45.0,24.0,-100.00,South,190,4.0,8.0,43,-99.99,,,0.00,,2013-04-04 02:00:00,
2013-04-03 20:00:00,44.0,25.0,-100.00,South,180,1.0,4.0,48,-99.99,,,0.00,,2013-04-04 03:00:00,
2013-04-03 21:00:00,44.0,27.0,-100.00,SSE,147,1.0,2.0,51,-99.99,,,0.00,,2013-04-04 04:00:00,
2013-04-03 22:00:00,44.0,27.0,-100.00,SE,134,2.0,4.0,51,-99.99,,,0.00,,2013-04-04 05:00:00,
2013-04-03 23:00:00,44.0,29.0,-100.00,East,99,3.0,5.0,54,-99.99,,,0.00,,2013-04-04 06:00:00,